| time (UTC) | temp C | wind direction | speed KPH | gust KPH | rain 1hr cm | rain 24hr cm | rain mn cm | humidity % | barometer mb |
| 20260510202057 | 8 | 360 | 0.0 | 3.2 | 0.00 | 0.00 | 0.00 | 74 | 1014.5 |
| 20260510201616 | 8 | 0 | 0.0 | 3.2 | 0.00 | 0.00 | 0.00 | 74 | 1014.6 |
| 20260510201058 | 9 | 0 | 0.0 | 3.2 | 0.00 | 0.00 | 0.00 | 74 | 1014.7 |
| 20260510200557 | 9 | 71 | 0.0 | 3.2 | 0.00 | 0.00 | 0.00 | 73 | 1014.7 |
| 20260510200100 | 9 | 0 | 0.0 | 3.2 | 0.00 | 0.00 | 0.00 | 73 | 1014.7 |
| 20260510195559 | 10 | 71 | 0.0 | 3.2 | 0.00 | 0.00 | 0.00 | 72 | 1014.7 |
| 20260510195058 | 10 | 71 | 0.0 | 3.2 | 0.00 | 0.00 | 0.00 | 71 | 1014.7 |
| 20260510194600 | 10 | 48 | 0.0 | 3.2 | 0.00 | 0.00 | 0.00 | 71 | 1014.8 |
| 20260510194058 | 10 | 0 | 0.0 | 3.2 | 0.00 | 0.00 | 0.00 | 70 | 1014.7 |
| 20260510193558 | 11 | 48 | 0.0 | 3.2 | 0.00 | 0.00 | 0.00 | 70 | 1014.7 |
| 20260510193106 | 11 | 48 | 0.0 | 1.6 | 0.00 | 0.00 | 0.00 | 70 | 1014.7 |
| 20260510192558 | 11 | 0 | 0.0 | 1.6 | 0.00 | 0.00 | 0.00 | 69 | 1014.7 |
| 20260510192058 | 11 | 48 | 0.0 | 3.2 | 0.00 | 0.00 | 0.00 | 69 | 1014.9 |
| 20260510191603 | 11 | 0 | 0.0 | 3.2 | 0.00 | 0.00 | 0.00 | 69 | 1014.9 |
| 20260510191059 | 11 | 0 | 0.0 | 1.6 | 0.00 | 0.00 | 0.00 | 67 | 1014.7 |
| 20260510190558 | 11 | 0 | 0.0 | 4.8 | 0.00 | 0.00 | 0.00 | 65 | 1014.7 |
| 20260510190100 | 11 | 0 | 0.0 | 6.4 | 0.00 | 0.00 | 0.00 | 65 | 1014.7 |
| 20260510185557 | 12 | 0 | 1.6 | 6.4 | 0.00 | 0.00 | 0.00 | 61 | 1014.7 |
| 20260510185059 | 12 | 312 | 1.6 | 6.4 | 0.00 | 0.00 | 0.00 | 60 | 1014.6 |
| 20260510184600 | 12 | 346 | 3.2 | 6.4 | 0.00 | 0.00 | 0.00 | 60 | 1014.6 |
| 20260510184101 | 12 | 329 | 1.6 | 6.4 | 0.00 | 0.00 | 0.00 | 59 | 1014.6 |
| 20260510183602 | 12 | 300 | 3.2 | 6.4 | 0.00 | 0.00 | 0.00 | 59 | 1014.7 |
| 20260510183058 | 13 | 0 | 0.0 | 11.3 | 0.00 | 0.00 | 0.00 | 59 | 1014.7 |
| 20260510182558 | 13 | 88 | 1.6 | 19.3 | 0.00 | 0.00 | 0.00 | 58 | 1014.6 |
| 20260510182058 | 13 | 0 | 4.8 | 19.3 | 0.00 | 0.00 | 0.00 | 54 | 1014.7 |
| 20260510181601 | 13 | 73 | 6.4 | 16.1 | 0.00 | 0.00 | 0.00 | 56 | 1014.8 |
| 20260510181059 | 13 | 48 | 6.4 | 14.5 | 0.00 | 0.00 | 0.00 | 56 | 1014.8 |
| 20260510180558 | 13 | 14 | 4.8 | 12.9 | 0.00 | 0.00 | 0.00 | 56 | 1014.9 |
| 20260510180110 | 13 | 69 | 1.6 | 9.7 | 0.00 | 0.00 | 0.00 | 56 | 1015.0 |
| 20260510175557 | 13 | 19 | 1.6 | 9.7 | 0.00 | 0.00 | 0.00 | 56 | 1014.9 |
| 20260510175058 | 13 | 171 | 0.0 | 6.4 | 0.00 | 0.00 | 0.00 | 57 | 1014.9 |
| 20260510174605 | 14 | 98 | 1.6 | 14.5 | 0.00 | 0.00 | 0.00 | 57 | 1015.0 |
| 20260510174058 | 14 | 313 | 3.2 | 14.5 | 0.00 | 0.00 | 0.00 | 59 | 1015.0 |
| 20260510173557 | 14 | 65 | 6.4 | 14.5 | 0.00 | 0.00 | 0.00 | 56 | 1015.1 |
| 20260510173107 | 14 | 97 | 4.8 | 11.3 | 0.00 | 0.00 | 0.00 | 55 | 1015.1 |
| 20260510172557 | 14 | 9 | 1.6 | 11.3 | 0.00 | 0.00 | 0.00 | 57 | 1015.2 |
| 20260510172058 | 14 | 17 | 3.2 | 12.9 | 0.00 | 0.00 | 0.00 | 57 | 1015.2 |
| 20260510171609 | 14 | 0 | 3.2 | 12.9 | 0.00 | 0.00 | 0.00 | 57 | 1015.2 |
| 20260510171059 | 14 | 41 | 4.8 | 17.7 | 0.00 | 0.00 | 0.00 | 56 | 1015.2 |
| 20260510170558 | 15 | 71 | 9.7 | 17.7 | 0.00 | 0.00 | 0.00 | 55 | 1015.3 |
| 20260510170058 | 15 | 41 | 4.8 | 14.5 | 0.00 | 0.00 | 0.00 | 55 | 1015.4 |
| 20260510165558 | 15 | 0 | 1.6 | 14.5 | 0.00 | 0.00 | 0.00 | 59 | 1015.4 |
| 20260510165059 | 14 | 57 | 4.8 | 14.5 | 0.00 | 0.00 | 0.00 | 58 | 1015.3 |
| 20260510164605 | 14 | 72 | 4.8 | 16.1 | 0.00 | 0.00 | 0.00 | 59 | 1015.4 |
| 20260510164058 | 14 | 86 | 4.8 | 19.3 | 0.00 | 0.00 | 0.00 | 58 | 1015.4 |
| 20260510163559 | 14 | 80 | 8.0 | 24.1 | 0.00 | 0.00 | 0.00 | 57 | 1015.4 |
| 20260510163101 | 15 | 74 | 12.9 | 24.1 | 0.00 | 0.00 | 0.00 | 58 | 1015.5 |
| 20260510162601 | 15 | 81 | 8.0 | 20.9 | 0.00 | 0.00 | 0.00 | 59 | 1015.6 |
| 20260510162058 | 14 | 71 | 8.0 | 17.7 | 0.00 | 0.00 | 0.00 | 59 | 1015.6 |
| 20260510161605 | 14 | 55 | 4.8 | 17.7 | 0.00 | 0.00 | 0.00 | 62 | 1015.6 |
| 20260510161058 | 13 | 90 | 8.0 | 22.5 | 0.00 | 0.00 | 0.00 | 59 | 1015.7 |
| 20260510160559 | 14 | 13 | 4.8 | 22.5 | 0.00 | 0.00 | 0.00 | 60 | 1015.8 |
| 20260510160108 | 14 | 25 | 6.4 | 20.9 | 0.00 | 0.00 | 0.00 | 60 | 1015.9 |
| 20260510155558 | 14 | 46 | 4.8 | 20.9 | 0.00 | 0.00 | 0.00 | 61 | 1016.0 |
| 20260510155058 | 13 | 66 | 11.3 | 20.9 | 0.00 | 0.00 | 0.00 | 61 | 1016.0 |
| 20260510154600 | 13 | 0 | 3.2 | 17.7 | 0.00 | 0.00 | 0.00 | 62 | 1016.1 |
| 20260510154057 | 13 | 95 | 8.0 | 17.7 | 0.00 | 0.00 | 0.00 | 63 | 1016.1 |
| 20260510153558 | 13 | 77 | 4.8 | 24.1 | 0.00 | 0.00 | 0.00 | 63 | 1016.3 |
| 20260510153102 | 13 | 51 | 9.7 | 24.1 | 0.00 | 0.00 | 0.00 | 62 | 1016.3 |
| 20260510152558 | 13 | 40 | 8.0 | 24.1 | 0.00 | 0.00 | 0.00 | 63 | 1016.3 |
| 20260510152058 | 13 | 74 | 9.7 | 25.7 | 0.00 | 0.00 | 0.00 | 62 | 1016.4 |
| 20260510151611 | 13 | 83 | 11.3 | 25.7 | 0.00 | 0.00 | 0.00 | 63 | 1016.4 |
| 20260510151058 | 13 | 71 | 4.8 | 16.1 | 0.00 | 0.00 | 0.00 | 65 | 1016.4 |
| 20260510150600 | 13 | 0 | 3.2 | 14.5 | 0.00 | 0.00 | 0.00 | 65 | 1016.5 |
| 20260510150109 | 13 | 283 | 4.8 | 14.5 | 0.00 | 0.00 | 0.00 | 65 | 1016.6 |
| 20260510145558 | 13 | 0 | 3.2 | 9.7 | 0.00 | 0.00 | 0.00 | 66 | 1016.5 |
| 20260510145058 | 13 | 348 | 1.6 | 11.3 | 0.00 | 0.00 | 0.00 | 66 | 1016.5 |
| 20260510144608 | 13 | 360 | 3.2 | 14.5 | 0.00 | 0.00 | 0.00 | 65 | 1016.6 |
| 20260510144058 | 13 | 0 | 4.8 | 17.7 | 0.00 | 0.00 | 0.00 | 67 | 1016.7 |
| 20260510143558 | 13 | 16 | 6.4 | 20.9 | 0.00 | 0.00 | 0.00 | 65 | 1016.8 |
| 20260510143108 | 12 | 58 | 9.7 | 20.9 | 0.00 | 0.00 | 0.00 | 65 | 1016.8 |
| 20260510142559 | 12 | 54 | 6.4 | 22.5 | 0.00 | 0.00 | 0.00 | 66 | 1016.8 |
| 20260510142058 | 12 | 85 | 12.9 | 22.5 | 0.00 | 0.00 | 0.00 | 65 | 1017.0 |
| 20260510141559 | 13 | 66 | 4.8 | 19.3 | 0.00 | 0.00 | 0.00 | 67 | 1016.9 |
| 20260510141058 | 13 | 57 | 3.2 | 17.7 | 0.00 | 0.00 | 0.00 | 66 | 1017.0 |
| 20260510140558 | 12 | 321 | 3.2 | 17.7 | 0.00 | 0.00 | 0.00 | 68 | 1017.1 |
| 20260510140058 | 12 | 5 | 6.4 | 17.7 | 0.00 | 0.00 | 0.00 | 65 | 1017.2 |
| 20260510135559 | 12 | 46 | 4.8 | 14.5 | 0.00 | 0.00 | 0.00 | 66 | 1017.1 |
| 20260510135059 | 12 | 0 | 3.2 | 14.5 | 0.00 | 0.00 | 0.00 | 68 | 1017.2 |
| 20260510134606 | 12 | 86 | 3.2 | 14.5 | 0.00 | 0.00 | 0.00 | 68 | 1017.3 |
| 20260510134059 | 12 | 279 | 3.2 | 12.9 | 0.00 | 0.00 | 0.00 | 68 | 1017.2 |
| 20260510133558 | 12 | 316 | 4.8 | 12.9 | 0.00 | 0.00 | 0.00 | 68 | 1017.1 |
| 20260510133102 | 12 | 325 | 1.6 | 12.9 | 0.00 | 0.00 | 0.00 | 69 | 1017.2 |
| 20260510132558 | 13 | 309 | 4.8 | 12.9 | 0.00 | 0.00 | 0.00 | 69 | 1017.2 |
| 20260510132059 | 13 | 77 | 3.2 | 12.9 | 0.00 | 0.00 | 0.00 | 68 | 1017.2 |
| 20260510131557 | 13 | 300 | 6.4 | 17.7 | 0.00 | 0.00 | 0.00 | 67 | 1017.2 |
| 20260510131058 | 13 | 103 | 4.8 | 17.7 | 0.00 | 0.00 | 0.00 | 68 | 1017.2 |
| 20260510130558 | 13 | 49 | 4.8 | 16.1 | 0.00 | 0.00 | 0.00 | 68 | 1017.1 |
| 20260510130112 | 13 | 115 | 3.2 | 12.9 | 0.00 | 0.00 | 0.00 | 67 | 1017.1 |
| 20260510125557 | 13 | 323 | 1.6 | 22.5 | 0.00 | 0.00 | 0.00 | 68 | 1017.2 |
| 20260510125059 | 13 | 26 | 3.2 | 22.5 | 0.00 | 0.00 | 0.00 | 69 | 1017.3 |
| 20260510124606 | 13 | 77 | 9.7 | 20.9 | 0.00 | 0.00 | 0.00 | 65 | 1017.3 |
| 20260510124059 | 13 | 77 | 4.8 | 16.1 | 0.00 | 0.00 | 0.00 | 67 | 1017.4 |
| 20260510123559 | 13 | 306 | 3.2 | 19.3 | 0.00 | 0.00 | 0.00 | 67 | 1017.4 |
| 20260510123104 | 13 | 336 | 8.0 | 19.3 | 0.00 | 0.00 | 0.00 | 69 | 1017.5 |
| 20260510122558 | 13 | 38 | 6.4 | 17.7 | 0.00 | 0.00 | 0.00 | 69 | 1017.5 |
| 20260510122058 | 13 | 347 | 4.8 | 19.3 | 0.00 | 0.00 | 0.00 | 68 | 1017.5 |
| 20260510121605 | 13 | 323 | 4.8 | 25.7 | 0.00 | 0.00 | 0.00 | 68 | 1017.6 |
| 20260510121100 | 13 | 30 | 12.9 | 25.7 | 0.00 | 0.00 | 0.00 | 66 | 1017.7 |
| 20260510120558 | 13 | 63 | 16.1 | 30.6 | 0.00 | 0.00 | 0.00 | 65 | 1017.6 |
| 20260510120058 | 13 | 64 | 11.3 | 30.6 | 0.00 | 0.00 | 0.00 | 65 | 1017.6 |
| 20260510115558 | 13 | 72 | 16.1 | 30.6 | 0.00 | 0.00 | 0.00 | 65 | 1017.6 |
| 20260510115058 | 13 | 310 | 14.5 | 30.6 | 0.00 | 0.00 | 0.00 | 65 | 1017.7 |
| 20260510114600 | 13 | 92 | 16.1 | 30.6 | 0.00 | 0.00 | 0.00 | 65 | 1017.7 |
| 20260510114057 | 13 | 103 | 9.7 | 32.2 | 0.00 | 0.00 | 0.00 | 66 | 1017.8 |
| 20260510113558 | 13 | 56 | 9.7 | 33.8 | 0.00 | 0.00 | 0.00 | 66 | 1017.8 |
| 20260510113107 | 13 | 98 | 14.5 | 33.8 | 0.00 | 0.00 | 0.00 | 65 | 1017.8 |
| 20260510112559 | 13 | 44 | 20.9 | 33.8 | 0.00 | 0.00 | 0.00 | 65 | 1018.0 |
| 20260510112059 | 13 | 319 | 11.3 | 29.0 | 0.00 | 0.00 | 0.00 | 65 | 1017.7 |
| 20260510111559 | 14 | 80 | 8.0 | 29.0 | 0.00 | 0.00 | 0.00 | 66 | 1017.9 |
| 20260510111059 | 13 | 104 | 14.5 | 33.8 | 0.00 | 0.00 | 0.00 | 66 | 1018.0 |
| 20260510110600 | 13 | 75 | 8.0 | 33.8 | 0.00 | 0.00 | 0.00 | 69 | 1018.1 |
| 20260510110058 | 13 | 349 | 11.3 | 33.8 | 0.00 | 0.00 | 0.00 | 65 | 1018.0 |
| 20260510105559 | 13 | 31 | 3.2 | 17.7 | 0.00 | 0.00 | 0.00 | 68 | 1018.2 |
| 20260510105059 | 13 | 328 | 8.0 | 20.9 | 0.00 | 0.00 | 0.00 | 70 | 1018.2 |
| 20260510104558 | 13 | 350 | 4.8 | 25.7 | 0.00 | 0.00 | 0.00 | 69 | 1018.1 |
| 20260510104057 | 13 | 103 | 8.0 | 29.0 | 0.00 | 0.00 | 0.00 | 70 | 1018.1 |
| 20260510103559 | 13 | 35 | 8.0 | 29.0 | 0.00 | 0.00 | 0.00 | 68 | 1018.1 |
| 20260510103059 | 13 | 43 | 14.5 | 29.0 | 0.00 | 0.00 | 0.00 | 68 | 1018.2 |
| 20260510102557 | 13 | 32 | 11.3 | 22.5 | 0.00 | 0.00 | 0.00 | 70 | 1018.0 |
| 20260510102058 | 13 | 296 | 9.7 | 22.5 | 0.00 | 0.00 | 0.00 | 69 | 1018.1 |
| 20260510101600 | 13 | 313 | 9.7 | 22.5 | 0.00 | 0.00 | 0.00 | 69 | 1018.1 |
| 20260510101058 | 13 | 334 | 12.9 | 22.5 | 0.00 | 0.00 | 0.00 | 69 | 1018.1 |
| 20260510100558 | 13 | 352 | 9.7 | 22.5 | 0.00 | 0.00 | 0.00 | 69 | 1018.0 |
| 20260510100110 | 13 | 16 | 3.2 | 24.1 | 0.00 | 0.00 | 0.00 | 69 | 1018.1 |
| 20260510095600 | 13 | 319 | 4.8 | 30.6 | 0.00 | 0.00 | 0.00 | 68 | 1018.0 |
| 20260510095058 | 13 | 87 | 14.5 | 30.6 | 0.00 | 0.00 | 0.00 | 63 | 1018.1 |
| 20260510094558 | 13 | 101 | 16.1 | 29.0 | 0.00 | 0.00 | 0.00 | 61 | 1018.1 |
| 20260510094057 | 14 | 115 | 16.1 | 30.6 | 0.00 | 0.00 | 0.00 | 62 | 1018.2 |
| 20260510093557 | 13 | 87 | 17.7 | 30.6 | 0.00 | 0.00 | 0.00 | 64 | 1018.2 |
| 20260510093100 | 13 | 151 | 16.1 | 30.6 | 0.00 | 0.00 | 0.00 | 65 | 1018.3 |
| 20260510092601 | 13 | 69 | 16.1 | 30.6 | 0.00 | 0.00 | 0.00 | 65 | 1018.3 |
| 20260510092102 | 12 | 48 | 14.5 | 33.8 | 0.00 | 0.00 | 0.00 | 67 | 1018.3 |
| 20260510091601 | 12 | 46 | 17.7 | 33.8 | 0.00 | 0.00 | 0.00 | 67 | 1018.3 |
| 20260510091057 | 12 | 63 | 16.1 | 29.0 | 0.00 | 0.00 | 0.00 | 68 | 1018.3 |
| 20260510090558 | 12 | 48 | 16.1 | 29.0 | 0.00 | 0.00 | 0.00 | 68 | 1018.5 |
| 20260510090058 | 12 | 103 | 14.5 | 25.7 | 0.00 | 0.00 | 0.00 | 70 | 1018.4 |
| 20260510085559 | 12 | 26 | 8.0 | 20.9 | 0.00 | 0.00 | 0.00 | 67 | 1018.5 |
| 20260510085059 | 12 | 32 | 9.7 | 22.5 | 0.00 | 0.00 | 0.00 | 66 | 1018.5 |
| 20260510084600 | 12 | 73 | 12.9 | 27.4 | 0.00 | 0.00 | 0.00 | 66 | 1018.5 |
| 20260510084058 | 12 | 62 | 16.1 | 32.2 | 0.00 | 0.00 | 0.00 | 64 | 1018.5 |
| 20260510083601 | 12 | 42 | 14.5 | 32.2 | 0.00 | 0.00 | 0.00 | 65 | 1018.6 |
| 20260510083102 | 12 | 75 | 11.3 | 32.2 | 0.00 | 0.00 | 0.00 | 66 | 1018.8 |
| 20260510082557 | 12 | 58 | 8.0 | 19.3 | 0.00 | 0.00 | 0.00 | 68 | 1018.6 |
| 20260510082057 | 12 | 26 | 9.7 | 24.1 | 0.00 | 0.00 | 0.00 | 68 | 1018.6 |
| 20260510081559 | 13 | 75 | 9.7 | 24.1 | 0.00 | 0.00 | 0.00 | 69 | 1018.6 |
| 20260510081058 | 12 | 127 | 12.9 | 24.1 | 0.00 | 0.00 | 0.00 | 67 | 1018.6 |
| 20260510080600 | 12 | 69 | 11.3 | 35.4 | 0.00 | 0.00 | 0.00 | 67 | 1018.6 |
| 20260510080104 | 12 | 130 | 11.3 | 35.4 | 0.00 | 0.00 | 0.00 | 67 | 1018.5 |
| 20260510075601 | 12 | 50 | 14.5 | 29.0 | 0.00 | 0.00 | 0.00 | 68 | 1018.5 |
| 20260510075058 | 12 | 37 | 16.1 | 29.0 | 0.00 | 0.00 | 0.00 | 67 | 1018.5 |
| 20260510074559 | 12 | 67 | 8.0 | 27.4 | 0.00 | 0.00 | 0.00 | 69 | 1018.5 |
| 20260510074058 | 12 | 57 | 8.0 | 27.4 | 0.00 | 0.00 | 0.00 | 68 | 1018.4 |
| 20260510073559 | 12 | 28 | 9.7 | 30.6 | 0.00 | 0.00 | 0.00 | 70 | 1018.3 |
| 20260510073116 | 11 | 99 | 12.9 | 30.6 | 0.00 | 0.00 | 0.00 | 71 | 1018.3 |
| 20260510072558 | 11 | 54 | 14.5 | 32.2 | 0.00 | 0.00 | 0.00 | 70 | 1018.4 |
| 20260510072059 | 11 | 63 | 16.1 | 32.2 | 0.00 | 0.00 | 0.00 | 71 | 1018.4 |
| 20260510071558 | 11 | 72 | 12.9 | 30.6 | 0.00 | 0.00 | 0.00 | 71 | 1018.3 |
| 20260510071058 | 11 | 65 | 11.3 | 29.0 | 0.00 | 0.00 | 0.00 | 71 | 1018.3 |
| 20260510070557 | 11 | 78 | 14.5 | 27.4 | 0.00 | 0.00 | 0.00 | 71 | 1018.3 |
| 20260510070106 | 11 | 51 | 11.3 | 27.4 | 0.00 | 0.00 | 0.00 | 71 | 1018.3 |
| 20260510065559 | 11 | 82 | 9.7 | 24.1 | 0.00 | 0.00 | 0.00 | 71 | 1018.2 |
| 20260510065100 | 11 | 68 | 8.0 | 24.1 | 0.00 | 0.00 | 0.00 | 71 | 1018.2 |
| 20260510064636 | 11 | 76 | 12.9 | 22.5 | 0.00 | 0.00 | 0.00 | 71 | 1018.2 |
| 20260510064058 | 11 | 37 | 9.7 | 19.3 | 0.00 | 0.00 | 0.00 | 72 | 1018.3 |
| 20260510063558 | 11 | 78 | 9.7 | 25.7 | 0.00 | 0.00 | 0.00 | 71 | 1018.2 |
| 20260510063058 | 11 | 223 | 8.0 | 25.7 | 0.00 | 0.00 | 0.00 | 72 | 1018.2 |
| 20260510062558 | 11 | 82 | 9.7 | 25.7 | 0.00 | 0.00 | 0.00 | 72 | 1018.1 |
| 20260510062059 | 11 | 57 | 4.8 | 22.5 | 0.00 | 0.00 | 0.00 | 71 | 1018.2 |
| 20260510061557 | 11 | 128 | 1.6 | 24.1 | 0.00 | 0.00 | 0.00 | 73 | 1018.1 |
| 20260510061058 | 11 | 142 | 6.4 | 24.1 | 0.00 | 0.00 | 0.00 | 71 | 1018.1 |
| 20260510060602 | 11 | 126 | 6.4 | 22.5 | 0.00 | 0.00 | 0.00 | 72 | 1018.0 |
| 20260510060059 | 11 | 60 | 9.7 | 22.5 | 0.00 | 0.00 | 0.00 | 72 | 1018.2 |
| 20260510055558 | 11 | 91 | 3.2 | 17.7 | 0.00 | 0.00 | 0.00 | 73 | 1018.1 |
| 20260510055059 | 10 | 38 | 8.0 | 22.5 | 0.00 | 0.00 | 0.00 | 74 | 1018.1 |
| 20260510054604 | 10 | 141 | 6.4 | 22.5 | 0.00 | 0.00 | 0.00 | 75 | 1018.2 |
| 20260510054058 | 10 | 107 | 11.3 | 22.5 | 0.00 | 0.00 | 0.00 | 76 | 1018.1 |
| 20260510053559 | 10 | 209 | 4.8 | 14.5 | 0.00 | 0.00 | 0.00 | 77 | 1018.1 |
| 20260510053057 | 10 | 175 | 3.2 | 14.5 | 0.00 | 0.00 | 0.00 | 77 | 1018.1 |
| 20260510052558 | 10 | 131 | 4.8 | 14.5 | 0.00 | 0.00 | 0.00 | 78 | 1018.1 |
| 20260510052058 | 9 | 98 | 4.8 | 14.5 | 0.00 | 0.00 | 0.00 | 77 | 1018.2 |
| 20260510051605 | 9 | 105 | 3.2 | 8.0 | 0.00 | 0.00 | 0.00 | 78 | 1018.3 |
| 20260510051100 | 9 | 238 | 3.2 | 8.0 | 0.00 | 0.00 | 0.00 | 78 | 1018.2 |
| 20260510050558 | 9 | 110 | 1.6 | 8.0 | 0.00 | 0.00 | 0.00 | 78 | 1018.3 |
| 20260510045601 | 9 | 299 | 4.8 | 17.7 | 0.00 | 0.00 | 0.00 | 78 | 1018.1 |
| 20260510045058 | 9 | 59 | 6.4 | 17.7 | 0.00 | 0.00 | 0.00 | 78 | 1018.2 |
| 20260510044602 | 9 | 352 | 3.2 | 17.7 | 0.00 | 0.00 | 0.00 | 78 | 1018.3 |
| 20260510044058 | 9 | 49 | 3.2 | 12.9 | 0.00 | 0.00 | 0.00 | 78 | 1018.2 |
| 20260510043559 | 9 | 90 | 4.8 | 14.5 | 0.00 | 0.00 | 0.00 | 78 | 1018.2 |
| 20260510043057 | 9 | 33 | 4.8 | 19.3 | 0.00 | 0.00 | 0.00 | 78 | 1018.3 |
| 20260510042559 | 9 | 61 | 6.4 | 19.3 | 0.00 | 0.00 | 0.00 | 78 | 1018.4 |
| 20260510042057 | 9 | 90 | 6.4 | 16.1 | 0.00 | 0.00 | 0.00 | 78 | 1018.3 |
| 20260510041557 | 9 | 69 | 4.8 | 16.1 | 0.00 | 0.00 | 0.00 | 78 | 1018.3 |
| 20260510041058 | 9 | 179 | 6.4 | 19.3 | 0.00 | 0.00 | 0.00 | 78 | 1018.2 |
| 20260510040559 | 9 | 69 | 6.4 | 19.3 | 0.00 | 0.00 | 0.00 | 78 | 1018.3 |
| 20260510040100 | 9 | 63 | 3.2 | 12.9 | 0.00 | 0.00 | 0.00 | 79 | 1018.3 |
| 20260510035558 | 9 | 80 | 4.8 | 20.9 | 0.00 | 0.00 | 0.00 | 79 | 1018.3 |
| 20260510035057 | 9 | 126 | 8.0 | 20.9 | 0.00 | 0.00 | 0.00 | 79 | 1018.3 |
| 20260510034618 | 9 | 85 | 4.8 | 14.5 | 0.00 | 0.00 | 0.00 | 79 | 1018.2 |
| 20260510034058 | 9 | 74 | 4.8 | 20.9 | 0.00 | 0.00 | 0.00 | 78 | 1018.3 |
| 20260510033558 | 9 | 71 | 6.4 | 20.9 | 0.00 | 0.00 | 0.00 | 78 | 1018.4 |
| 20260510033100 | 9 | 71 | 4.8 | 14.5 | 0.00 | 0.00 | 0.00 | 79 | 1018.5 |
| 20260510032557 | 9 | 60 | 1.6 | 12.9 | 0.00 | 0.00 | 0.00 | 78 | 1018.4 |
| 20260510032057 | 9 | 77 | 4.8 | 14.5 | 0.00 | 0.00 | 0.00 | 78 | 1018.4 |
| 20260510031557 | 9 | 49 | 6.4 | 20.9 | 0.00 | 0.00 | 0.00 | 78 | 1018.4 |
| 20260510031056 | 9 | 84 | 6.4 | 20.9 | 0.00 | 0.00 | 0.00 | 79 | 1018.4 |
| 20260510030559 | 9 | 0 | 3.2 | 11.3 | 0.00 | 0.00 | 0.00 | 79 | 1018.4 |
| 20260510030109 | 9 | 57 | 3.2 | 11.3 | 0.00 | 0.00 | 0.00 | 79 | 1018.4 |
| 20260510025558 | 9 | 104 | 1.6 | 12.9 | 0.00 | 0.00 | 0.00 | 79 | 1018.4 |
| 20260510025058 | 10 | 80 | 4.8 | 12.9 | 0.00 | 0.00 | 0.00 | 79 | 1018.4 |
| 20260510024600 | 10 | 40 | 4.8 | 12.9 | 0.00 | 0.00 | 0.00 | 78 | 1018.3 |
| 20260510024058 | 10 | 93 | 3.2 | 16.1 | 0.00 | 0.00 | 0.00 | 78 | 1018.2 |
| 20260510023557 | 10 | 42 | 0.0 | 16.1 | 0.00 | 0.00 | 0.00 | 78 | 1018.3 |
| 20260510023058 | 10 | 44 | 3.2 | 16.1 | 0.00 | 0.00 | 0.00 | 78 | 1018.3 |
| 20260510022603 | 10 | 99 | 4.8 | 16.1 | 0.00 | 0.00 | 0.00 | 78 | 1018.2 |
| 20260510022057 | 10 | 59 | 6.4 | 19.3 | 0.00 | 0.00 | 0.00 | 78 | 1018.3 |
| 20260510021604 | 10 | 44 | 8.0 | 19.3 | 0.00 | 0.00 | 0.00 | 78 | 1018.3 |
| 20260510021058 | 10 | 66 | 4.8 | 17.7 | 0.00 | 0.00 | 0.00 | 78 | 1018.3 |
| 20260510020557 | 10 | 80 | 6.4 | 14.5 | 0.00 | 0.00 | 0.00 | 78 | 1018.4 |
| 20260510020056 | 10 | 42 | 8.0 | 14.5 | 0.00 | 0.00 | 0.00 | 78 | 1018.3 |
| 20260510015558 | 10 | 41 | 4.8 | 20.9 | 0.00 | 0.00 | 0.00 | 77 | 1018.4 |
| 20260510015056 | 10 | 59 | 9.7 | 20.9 | 0.00 | 0.00 | 0.00 | 77 | 1018.3 |
| 20260510014602 | 10 | 79 | 6.4 | 14.5 | 0.00 | 0.00 | 0.00 | 78 | 1018.3 |
| 20260510014058 | 10 | 66 | 4.8 | 12.9 | 0.00 | 0.00 | 0.00 | 78 | 1018.4 |
| 20260510013600 | 10 | 63 | 6.4 | 14.5 | 0.00 | 0.00 | 0.00 | 78 | 1018.4 |
| 20260510013126 | 10 | 98 | 4.8 | 14.5 | 0.00 | 0.00 | 0.00 | 79 | 1018.3 |
| 20260510012558 | 10 | 66 | 1.6 | 12.9 | 0.00 | 0.00 | 0.00 | 79 | 1018.4 |
| 20260510012057 | 10 | 115 | 0.0 | 11.3 | 0.00 | 0.00 | 0.00 | 79 | 1018.5 |
| 20260510011558 | 10 | 145 | 1.6 | 14.5 | 0.00 | 0.00 | 0.00 | 79 | 1018.3 |
| 20260510011058 | 11 | 0 | 3.2 | 14.5 | 0.00 | 0.00 | 0.00 | 79 | 1018.2 |
| 20260510010558 | 11 | 59 | 3.2 | 16.1 | 0.00 | 0.00 | 0.00 | 78 | 1018.2 |
| 20260510010058 | 11 | 74 | 4.8 | 22.5 | 0.00 | 0.00 | 0.00 | 78 | 1018.1 |
| 20260510005558 | 11 | 61 | 3.2 | 22.5 | 0.00 | 0.00 | 0.00 | 78 | 1018.0 |
| 20260510005100 | 11 | 88 | 6.4 | 22.5 | 0.00 | 0.00 | 0.00 | 78 | 1018.0 |
| 20260510004559 | 11 | 54 | 6.4 | 17.7 | 0.00 | 0.00 | 0.00 | 77 | 1017.9 |
| 20260510004059 | 11 | 119 | 3.2 | 20.9 | 0.00 | 0.00 | 0.00 | 77 | 1018.1 |
| 20260510003559 | 11 | 81 | 6.4 | 20.9 | 0.00 | 0.00 | 0.00 | 77 | 1018.1 |
| 20260510003107 | 11 | 53 | 4.8 | 20.9 | 0.00 | 0.00 | 0.00 | 77 | 1018.2 |
| 20260510002601 | 11 | 112 | 4.8 | 12.9 | 0.00 | 0.00 | 0.00 | 77 | 1018.1 |
| 20260510002105 | 11 | 320 | 3.2 | 9.7 | 0.00 | 0.00 | 0.00 | 77 | 1018.1 |
| 20260510001559 | 11 | 287 | 3.2 | 11.3 | 0.00 | 0.00 | 0.00 | 78 | 1018.1 |
| 20260510001059 | 11 | 0 | 3.2 | 11.3 | 0.00 | 0.00 | 0.00 | 78 | 1018.0 |
| 20260510000559 | 11 | 230 | 1.6 | 14.5 | 0.00 | 0.00 | 0.00 | 78 | 1018.1 |
| 20260510000126 | 12 | 92 | 3.2 | 14.5 | 0.00 | 0.00 | 0.00 | 77 | 1017.9 |
| 20260509235558 | 12 | 96 | 4.8 | 14.5 | 0.00 | 0.00 | 0.00 | 77 | 1017.9 |
| 20260509235058 | 12 | 319 | 6.4 | 16.1 | 0.00 | 0.00 | 0.00 | 77 | 1017.9 |
| 20260509234556 | 12 | 294 | 3.2 | 17.7 | 0.00 | 0.00 | 0.00 | 76 | 1018.0 |
| 20260509234058 | 12 | 94 | 4.8 | 17.7 | 0.00 | 0.00 | 0.00 | 76 | 1017.9 |
| 20260509233558 | 12 | 83 | 4.8 | 29.0 | 0.00 | 0.00 | 0.00 | 76 | 1017.9 |
| 20260509233058 | 12 | 93 | 9.7 | 29.0 | 0.00 | 0.00 | 0.00 | 76 | 1017.8 |
| 20260509232559 | 12 | 109 | 8.0 | 29.0 | 0.00 | 0.00 | 0.00 | 76 | 1017.8 |
| 20260509232059 | 12 | 19 | 11.3 | 27.4 | 0.00 | 0.00 | 0.00 | 76 | 1017.7 |
| 20260509231610 | 12 | 59 | 3.2 | 20.9 | 0.00 | 0.00 | 0.00 | 76 | 1017.7 |
| 20260509231058 | 12 | 24 | 9.7 | 20.9 | 0.00 | 0.00 | 0.00 | 76 | 1018.0 |
| 20260509230558 | 12 | 59 | 9.7 | 17.7 | 0.00 | 0.00 | 0.00 | 76 | 1018.0 |
| 20260509230108 | 12 | 84 | 8.0 | 17.7 | 0.00 | 0.00 | 0.00 | 76 | 1017.8 |
| 20260509225600 | 12 | 337 | 4.8 | 19.3 | 0.00 | 0.00 | 0.00 | 76 | 1017.5 |
| 20260509225110 | 13 | 136 | 8.0 | 19.3 | 0.00 | 0.00 | 0.00 | 76 | 1017.4 |
| 20260509224556 | 13 | 122 | 6.4 | 19.3 | 0.00 | 0.00 | 0.00 | 76 | 1017.4 |
| 20260509224058 | 13 | 288 | 4.8 | 16.1 | 0.00 | 0.00 | 0.00 | 76 | 1017.4 |
| 20260509223558 | 13 | 352 | 1.6 | 14.5 | 0.00 | 0.00 | 0.00 | 76 | 1017.5 |
| 20260509223110 | 13 | 46 | 3.2 | 19.3 | 0.00 | 0.00 | 0.00 | 75 | 1017.5 |
| 20260509222558 | 13 | 89 | 3.2 | 19.3 | 0.00 | 0.00 | 0.00 | 75 | 1017.5 |
| 20260509222058 | 13 | 40 | 4.8 | 19.3 | 0.00 | 0.00 | 0.00 | 76 | 1017.5 |
| 20260509221626 | 13 | 161 | 3.2 | 11.3 | 0.00 | 0.00 | 0.00 | 76 | 1017.5 |
| 20260509221059 | 13 | 83 | 3.2 | 9.7 | 0.00 | 0.00 | 0.00 | 76 | 1017.5 |
| 20260509220558 | 13 | 154 | 1.6 | 17.7 | 0.00 | 0.00 | 0.00 | 76 | 1017.4 |
| 20260509220057 | 13 | 37 | 3.2 | 17.7 | 0.00 | 0.00 | 0.00 | 76 | 1017.4 |
| 20260509215559 | 13 | 360 | 4.8 | 17.7 | 0.00 | 0.00 | 0.00 | 76 | 1017.5 |
| 20260509215103 | 13 | 350 | 4.8 | 17.7 | 0.00 | 0.00 | 0.00 | 76 | 1017.6 |
| 20260509214604 | 13 | 275 | 6.4 | 19.3 | 0.00 | 0.00 | 0.00 | 75 | 1017.5 |
| 20260509214059 | 13 | 325 | 9.7 | 19.3 | 0.00 | 0.00 | 0.00 | 75 | 1017.4 |
| 20260509213558 | 13 | 317 | 9.7 | 19.3 | 0.00 | 0.00 | 0.00 | 75 | 1017.4 |
| 20260509213057 | 13 | 333 | 8.0 | 17.7 | 0.00 | 0.00 | 0.00 | 75 | 1017.5 |
| 20260509212559 | 13 | 256 | 6.4 | 19.3 | 0.00 | 0.00 | 0.00 | 75 | 1017.4 |
| 20260509212058 | 13 | 296 | 8.0 | 19.3 | 0.00 | 0.00 | 0.00 | 74 | 1017.5 |
| 20260509211605 | 13 | 319 | 9.7 | 20.9 | 0.00 | 0.00 | 0.00 | 74 | 1017.5 |
| 20260509211058 | 14 | 352 | 9.7 | 20.9 | 0.00 | 0.00 | 0.00 | 74 | 1017.3 |
| 20260509210558 | 14 | 352 | 11.3 | 19.3 | 0.00 | 0.00 | 0.00 | 74 | 1017.3 |
| 20260509210059 | 14 | 351 | 8.0 | 17.7 | 0.00 | 0.00 | 0.00 | 74 | 1017.2 |
| 20260509205558 | 14 | 284 | 8.0 | 19.3 | 0.00 | 0.00 | 0.00 | 73 | 1017.1 |
| 20260509205058 | 14 | 313 | 9.7 | 20.9 | 0.00 | 0.00 | 0.00 | 73 | 1017.1 |
| 20260509204602 | 15 | 316 | 11.3 | 20.9 | 0.00 | 0.00 | 0.00 | 72 | 1017.2 |
| 20260509204058 | 15 | 319 | 11.3 | 19.3 | 0.00 | 0.00 | 0.00 | 71 | 1017.1 |
| 20260509203601 | 15 | 338 | 8.0 | 27.4 | 0.00 | 0.00 | 0.00 | 71 | 1016.9 |
| 20260509203058 | 15 | 10 | 11.3 | 27.4 | 0.00 | 0.00 | 0.00 | 70 | 1016.9 |
| 20260509202559 | 15 | 323 | 9.7 | 27.4 | 0.00 | 0.00 | 0.00 | 70 | 1017.0 |